• In Uzbekistan
  • List of Countries
  • For 7 days
  • Water Temperature
  • Satellite Maps
  • Weather Map
  • Weather Widgets
  • user-avatar
    Login

    Hourly Weather Vanadzor

    Today, 25 March, Saturday

    Time Temperature Precipitation Wind Pressure Humidity
    00:00 -2°C° 0 mm 1 mps 635 mmHg 98%
    01:00 -3°C° 0 mm 1 mps 634 mmHg 98%
    02:00 -4°C° 0 mm 1 mps 634 mmHg 98%
    03:00 -6°C° 0 mm 0 mps 633 mmHg 99%
    04:00 -7°C° 0 mm 0 mps 633 mmHg 98%
    05:00 -7°C° 0 mm 0 mps 632 mmHg 98%
    06:00 -8°C° 0 mm 0 mps 632 mmHg 98%
    07:00 -4°C° 0 mm 0 mps 633 mmHg 90%
    08:00 -1°C° 0 mm 0 mps 634 mmHg 83%
    09:00 +3°C° 0 mm 0 mps 635 mmHg 75%
    10:00 +5°C° 0 mm 1 mps 635 mmHg 74%
    11:00 +6°C° 0 mm 1 mps 635 mmHg 72%
    12:00 +7°C° 0 mm 1 mps 635 mmHg 71%
    13:00 +7°C° 0 mm 1 mps 634 mmHg 70%
    14:00 +8°C° 0 mm 1 mps 634 mmHg 70%
    15:00 +8°C° 0 mm 1 mps 633 mmHg 70%
    16:00 +5°C° 0 mm 1 mps 633 mmHg 76%
    17:00 +3°C° 0 mm 1 mps 632 mmHg 83%
    18:00 +1°C° 0 mm 1 mps 631 mmHg 90%
    19:00 -2°C° 0 mm 0 mps 631 mmHg 91%
    20:00 -3°C° 0 mm 0 mps 630 mmHg 92%
    21:00 -4°C° 0 mm 0 mps 630 mmHg 93%
    22:00 -4°C° 0 mm 0 mps 630 mmHg 92%
    23:00 -3°C° 0 mm 1 mps 631 mmHg 90%

    Tomorrow, 26 March, Sunday

    Time Temperature Precipitation Wind Pressure Humidity
    00:00 -3°C° 0 mm 1 mps 631 mmHg 89%
    01:00 -3°C° 0 mm 1 mps 631 mmHg 88%
    02:00 -3°C° 0 mm 1 mps 631 mmHg 87%
    03:00 -3°C° 0 mm 1 mps 631 mmHg 86%
    04:00 -3°C° 0 mm 1 mps 631 mmHg 86%
    05:00 -3°C° 0 mm 1 mps 631 mmHg 86%
    06:00 -3°C° 0 mm 1 mps 631 mmHg 86%
    07:00 0°C° 0 mm 1 mps 632 mmHg 80%
    08:00 +3°C° 0 mm 1 mps 632 mmHg 74%
    09:00 +5°C° 0 mm 1 mps 633 mmHg 68%
    10:00 +6°C° 0 mm 1 mps 633 mmHg 66%
    11:00 +7°C° 0 mm 1 mps 633 mmHg 65%
    12:00 +7°C° 0 mm 2 mps 633 mmHg 63%
    13:00 +8°C° 0 mm 2 mps 633 mmHg 63%
    14:00 +8°C° 0 mm 2 mps 632 mmHg 63%
    15:00 +8°C° 0 mm 2 mps 632 mmHg 63%
    16:00 +7°C° 0 mm 1 mps 632 mmHg 69%
    17:00 +5°C° 0 mm 1 mps 632 mmHg 74%
    18:00 +4°C° 0 mm 1 mps 631 mmHg 80%
    19:00 +3°C° 0 mm 1 mps 631 mmHg 81%
    20:00 +2°C° 0 mm 1 mps 632 mmHg 81%
    21:00 +1°C° 0 mm 1 mps 632 mmHg 81%
    22:00 +1°C° 0 mm 1 mps 632 mmHg 80%
    23:00 +1°C° 0 mm 1 mps 632 mmHg 79%

    Day after tomorrow, 27 March, Monday

    Time Temperature Precipitation Wind Pressure Humidity
    00:00 0°C° 0 mm 1 mps 632 mmHg 78%
    01:00 0°C° 0 mm 1 mps 632 mmHg 79%
    02:00 0°C° 0 mm 1 mps 632 mmHg 79%
    03:00 -2°C° 0 mm 2 mps 632 mmHg 79%
    04:00 -2°C° 0 mm 2 mps 632 mmHg 79%
    05:00 -2°C° 0 mm 2 mps 632 mmHg 80%
    06:00 -2°C° 0 mm 2 mps 632 mmHg 80%
    07:00 +1°C° 0 mm 2 mps 632 mmHg 75%
    08:00 +3°C° 0 mm 2 mps 632 mmHg 69%
    09:00 +5°C° 0 mm 2 mps 633 mmHg 64%
    10:00 +6°C° 0 mm 2 mps 633 mmHg 63%
    11:00 +8°C° 0 mm 3 mps 632 mmHg 63%
    12:00 +9°C° 0 mm 3 mps 632 mmHg 62%
    13:00 +9°C° 0 mm 3 mps 632 mmHg 62%
    14:00 +9°C° 0 mm 3 mps 632 mmHg 62%
    15:00 +8°C° 0 mm 4 mps 631 mmHg 63%
    16:00 +7°C° 0.1 mm 3 mps 631 mmHg 68%
    17:00 +5°C° 0.1 mm 3 mps 631 mmHg 73%
    18:00 +5°C° 0.1 mm 2 mps 630 mmHg 79%
    19:00 +4°C° 0.1 mm 2 mps 631 mmHg 81%
    20:00 +3°C° 0.1 mm 2 mps 631 mmHg 83%
    21:00 +2°C° 0.1 mm 2 mps 631 mmHg 85%
    22:00 +2°C° 0.1 mm 2 mps 631 mmHg 86%
    23:00 +2°C° 0.1 mm 2 mps 631 mmHg 86%

    28 March, Tuesday

    Time Temperature Precipitation Wind Pressure Humidity
    00:00 +2°C° 0.1 mm 2 mps 630 mmHg 87%
    01:00 +2°C° 0.1 mm 2 mps 630 mmHg 87%
    02:00 +2°C° 0.1 mm 2 mps 630 mmHg 88%
    03:00 +2°C° 0.1 mm 2 mps 630 mmHg 88%
    04:00 +2°C° 0 mm 2 mps 629 mmHg 88%
    05:00 +2°C° 0 mm 2 mps 629 mmHg 87%
    06:00 +2°C° 0 mm 2 mps 629 mmHg 87%
    07:00 +2°C° 0.1 mm 3 mps 630 mmHg 81%
    08:00 +4°C° 0.1 mm 3 mps 630 mmHg 75%
    09:00 +5°C° 0.1 mm 3 mps 631 mmHg 68%
    10:00 +7°C° 0.2 mm 3 mps 631 mmHg 68%
    11:00 +7°C° 0.2 mm 3 mps 631 mmHg 68%
    12:00 +7°C° 0.2 mm 3 mps 631 mmHg 68%
    13:00 +7°C° 0.6 mm 3 mps 631 mmHg 72%
    14:00 +5°C° 0.6 mm 3 mps 630 mmHg 76%
    15:00 +5°C° 0.6 mm 3 mps 630 mmHg 79%
    16:00 +5°C° 0.7 mm 2 mps 630 mmHg 84%
    17:00 +4°C° 0.7 mm 2 mps 631 mmHg 88%
    18:00 +4°C° 0.7 mm 1 mps 631 mmHg 93%
    19:00 +3°C° 0.5 mm 1 mps 631 mmHg 93%
    20:00 +3°C° 0.5 mm 1 mps 632 mmHg 94%
    21:00 +2°C° 0.5 mm 1 mps 633 mmHg 95%
    22:00 +2°C° 0.2 mm 1 mps 633 mmHg 95%
    23:00 +1°C° 0.2 mm 1 mps 632 mmHg 95%

    29 March, Wednesday

    Time Temperature Precipitation Wind Pressure Humidity
    00:00 +1°C° 0.2 mm 1 mps 632 mmHg 95%
    01:00 0°C° 0 mm 1 mps 632 mmHg 94%
    02:00 0°C° 0 mm 1 mps 632 mmHg 94%
    03:00 -1°C° 0 mm 1 mps 632 mmHg 94%
    04:00 -1°C° 0 mm 1 mps 633 mmHg 93%
    05:00 -1°C° 0 mm 1 mps 633 mmHg 92%
    06:00 -2°C° 0 mm 1 mps 633 mmHg 91%
    07:00 0°C° 0 mm 1 mps 633 mmHg 86%
    08:00 +2°C° 0 mm 1 mps 634 mmHg 80%
    09:00 +3°C° 0 mm 2 mps 635 mmHg 75%
    10:00 +4°C° 0 mm 2 mps 635 mmHg 72%
    11:00 +5°C° 0 mm 2 mps 635 mmHg 68%
    12:00 +6°C° 0 mm 2 mps 635 mmHg 64%
    13:00 +6°C° 0 mm 2 mps 635 mmHg 64%
    14:00 +6°C° 0 mm 2 mps 635 mmHg 64%
    15:00 +7°C° 0 mm 2 mps 635 mmHg 63%
    16:00 +5°C° 0 mm 2 mps 635 mmHg 70%
    17:00 +4°C° 0 mm 1 mps 635 mmHg 77%
    18:00 +2°C° 0 mm 1 mps 634 mmHg 84%
    19:00 +2°C° 0 mm 1 mps 635 mmHg 85%
    20:00 +1°C° 0 mm 1 mps 635 mmHg 86%
    21:00 0°C° 0 mm 1 mps 635 mmHg 87%
    22:00 -1°C° 0 mm 1 mps 635 mmHg 87%
    23:00 -1°C° 0 mm 1 mps 635 mmHg 86%

    30 March, Thursday

    Time Temperature Precipitation Wind Pressure Humidity
    00:00 -2°C° 0 mm 1 mps 635 mmHg 86%
    01:00 -2°C° 0 mm 1 mps 635 mmHg 87%
    02:00 -2°C° 0 mm 1 mps 635 mmHg 87%
    03:00 -4°C° 0 mm 0 mps 635 mmHg 88%
    04:00 -4°C° 0 mm 0 mps 635 mmHg 89%
    05:00 -3°C° 0 mm 1 mps 635 mmHg 90%
    06:00 -3°C° 0 mm 1 mps 636 mmHg 91%
    07:00 -1°C° 0 mm 1 mps 636 mmHg 84%
    08:00 +2°C° 0 mm 1 mps 637 mmHg 77%
    09:00 +4°C° 0 mm 1 mps 638 mmHg 70%
    10:00 +5°C° 0 mm 1 mps 638 mmHg 69%
    11:00 +6°C° 0 mm 1 mps 637 mmHg 68%
    12:00 +6°C° 0 mm 2 mps 637 mmHg 67%
    13:00 +6°C° 0 mm 2 mps 637 mmHg 68%
    14:00 +7°C° 0 mm 2 mps 636 mmHg 69%
    15:00 +7°C° 0 mm 2 mps 636 mmHg 70%
    16:00 +6°C° 0 mm 1 mps 635 mmHg 76%
    17:00 +4°C° 0 mm 1 mps 635 mmHg 83%
    18:00 +3°C° 0 mm 1 mps 634 mmHg 90%
    19:00 +1°C° 0 mm 1 mps 634 mmHg 91%
    20:00 -1°C° 0 mm 0 mps 634 mmHg 93%
    21:00 -2°C° 0 mm 0 mps 634 mmHg 94%
    22:00 -2°C° 0 mm 0 mps 634 mmHg 92%
    23:00 -2°C° 0 mm 0 mps 634 mmHg 90%
    Show more